Home > Weather > Roskilde > Past weeks

Flag for Denmark Past Weather in Roskilde, Denmark — Yesterday and Last 2 Weeks

Now
55 °F

Fog.


Feels Like: 52 °F
Forecast: 53 / 73 °F
Wind: 14 mph from North

Location: Koebenhavn / Roskilde

Current Time: May 24, 2016 at 8:22:43 AM

Latest Report: May 24, 2016 at 7:50 AM


Visibility: 2 mi

Pressure: 29.83 "Hg

Humidity: 100%

Dew Point: 55 °F

Location of RoskildeLocation

Past Weather in Roskilde — Graph

°F

Roskilde Temperature Yesterday

Maximum temperature yesterday: 66 °F (at 1:50 PM)
Minimum temperature yesterday: 55 °F (at 1:20 AM)
Average temperature yesterday: 60 °F

High & Low Weather Summary for the Past Weeks

 TemperatureHumidityPressure
High72 °F (May 9, 12:50 PM)100% (May 13, 5:20 AM)30.24 "Hg (May 13, 5:20 AM)
Low39 °F (May 13, 5:20 AM)35% (May 9, 9:50 AM)29.56 "Hg (May 13, 3:50 PM)
Average55 °F75%29.86 "Hg
* Reported May 9 6:20 AM — May 24 6:50 AM, Roskilde, Weather by CustomWeather, © 2016

Note: Actual official high and low records may vary slightly from our data, if they occured in-between our weather recording intervals... More about our weather records

Advertising

Roskilde Weather History for the Previous 24 Hours

Scroll right to see more
 ConditionsComfort  
Time TempWeatherWind HumidityBarometerVisibility
6:50 AM
Tue, May 24
55 °FLow clouds.14 mph100%29.83 "Hg3 mi
6:20 AM55 °FLow clouds.14 mph100%29.80 "Hg6 mi
5:50 AM55 °FPartly sunny.14 mph100%29.80 "HgN/A
5:20 AM55 °FPassing clouds.12 mph100%29.80 "HgN/A
4:50 AM55 °FPassing clouds.12 mph100%29.80 "HgN/A
4:20 AM55 °FCool.13 mph94%29.80 "HgN/A
3:50 AM55 °FCool.14 mph94%29.80 "HgN/A
3:20 AM55 °FCool.15 mph94%29.80 "HgN/A
2:50 AM57 °FCool.14 mph88%29.83 "HgN/A
2:20 AM57 °FCool.13 mph94%29.83 "HgN/A
1:50 AM55 °FCool.12 mph94%29.86 "HgN/A
1:20 AM55 °FCool.12 mph94%29.86 "HgN/A
12:50 AM57 °FCool.12 mph88%29.83 "HgN/A
12:20 AM57 °FCool.12 mph88%29.83 "HgN/A
11:50 PM
Mon, May 23
57 °FCool.12 mph88%29.83 "HgN/A
11:20 PM57 °FCool.13 mph88%29.83 "HgN/A
10:50 PM57 °FCool.12 mph88%29.86 "HgN/A
10:20 PM57 °FCool.12 mph94%29.86 "HgN/A
9:50 PM57 °FCool.13 mph94%29.86 "HgN/A
9:20 PM57 °FPassing clouds.13 mph94%29.86 "HgN/A
8:50 PM57 °FPartly sunny.14 mph94%29.83 "HgN/A
8:20 PM59 °FPartly sunny.13 mph88%29.83 "HgN/A
7:50 PM59 °FPartly sunny.13 mph88%29.83 "HgN/A
7:20 PM61 °FPassing clouds.12 mph88%29.83 "HgN/A
6:50 PM61 °FCool.13 mph88%29.83 "HgN/A
6:20 PM63 °FMild.13 mph83%29.83 "HgN/A
5:50 PM63 °FPassing clouds.9 mph83%29.83 "HgN/A
5:20 PM63 °FPassing clouds.12 mph83%29.80 "HgN/A
4:50 PM64 °FPassing clouds.12 mph83%29.80 "HgN/A
4:20 PM63 °FPassing clouds.12 mph88%29.83 "HgN/A
3:50 PM64 °FScattered clouds.12 mph83%29.80 "HgN/A
3:20 PM64 °FScattered clouds.10 mph83%29.80 "HgN/A
2:50 PM64 °FPassing clouds.13 mph83%29.80 "HgN/A
2:20 PM64 °FPassing clouds.8 mph83%29.83 "HgN/A
1:50 PM66 °FScattered clouds.8 mph78%29.83 "HgN/A
1:22 PM64 °FPartly sunny.9 mph83%29.83 "Hg5 mi
12:53 PM64 °FPartly sunny.9 mph83%29.83 "Hg5 mi
12:22 PM63 °FPartly sunny.8 mph88%29.83 "Hg5 mi
11:53 AM63 °FBroken clouds.9 mph88%29.83 "Hg5 mi
11:20 AM63 °FBroken clouds.8 mph88%29.80 "Hg5 mi
10:50 AM61 °FPartly sunny.8 mph88%29.80 "Hg5 mi
10:22 AM61 °FPartly sunny.8 mph88%29.83 "Hg5 mi
9:50 AM63 °FBroken clouds.9 mph88%29.80 "Hg5 mi
9:21 AM61 °FBroken clouds.9 mph94%29.80 "Hg5 mi
8:50 AM63 °FPassing clouds.7 mph88%29.80 "HgN/A
8:20 AM61 °FPartly sunny.7 mph88%29.80 "Hg6 mi
Weather by CustomWeather, © 2016

See weather overviewHow to use our weather pages